Location: Riverton
(43.0250°N, 108.3790°W)
Time: 07:24:03
(UTC-07:00)

JAS-2 - Visible Passes

Search period start: 26 January 2015 00:00
Search period end: 05 February 2015 00:00
Orbit: 799 x 1322 km, 98.5° (Epoch: 25 January)

Date Brightness Start Highest point End Pass type
(mag) Time Alt. Az. Time Alt. Az. Time Alt. Az.
26 Jan 10.5 04:33:11 10° NNE 04:38:23 41° E 04:44:10 10° SSE visible
26 Jan 10.0 06:18:42 10° N 06:23:27 30° WNW 06:28:32 10° SW visible
27 Jan 12.0 03:39:57 10° ENE 03:42:50 14° E 03:46:11 10° ESE visible
27 Jan 9.2 05:23:00 10° N 05:28:34 80° WNW 05:34:47 10° SSW visible
28 Jan 10.7 04:28:12 10° NNE 04:33:25 38° E 04:39:15 10° SSE visible
28 Jan 10.0 06:13:35 10° N 06:18:32 33° WNW 06:23:51 10° SW visible
29 Jan 12.1 03:35:10 10° ENE 03:37:50 14° E 03:41:01 10° ESE visible
29 Jan 9.3 05:17:58 10° NNE 05:23:38 86° WNW 05:29:59 10° SSW visible
30 Jan 10.8 04:23:14 10° NNE 04:28:28 36° E 04:34:20 10° SSE visible
30 Jan 9.9 06:08:29 10° N 06:13:36 35° WNW 06:19:11 10° SW visible
31 Jan 12.2 03:30:26 10° ENE 03:32:51 13° E 03:35:48 10° ESE visible
31 Jan 9.4 05:12:56 10° NNE 05:18:42 89° ESE 05:25:12 10° SSW visible
01 Feb 10.9 04:18:16 10° NNE 04:23:31 34° E 04:29:25 10° SSE visible
01 Feb 9.9 06:03:23 10° N 06:08:41 39° WNW 06:14:31 10° SW visible
02 Feb 12.3 03:25:43 10° ENE 03:27:52 12° E 03:30:33 10° ESE visible
02 Feb 9.5 05:07:55 10° NNE 05:13:46 84° ESE 05:20:24 10° SSW visible
02 Feb 10.8 06:54:47 10° NNW 06:58:26 17° WNW 07:02:05 10° W visible
03 Feb 11.1 04:13:19 10° NNE 04:18:34 33° E 04:24:30 10° SSE visible
03 Feb 9.8 05:58:18 10° N 06:03:47 42° WNW 06:09:50 10° SW visible
04 Feb 12.3 03:21:05 10° ENE 03:22:54 12° E 03:25:14 10° ESE visible
04 Feb 9.6 05:02:54 10° NNE 05:08:51 79° ESE 05:15:36 10° S visible
04 Feb 10.8 06:49:33 10° NNW 06:53:33 18° WNW 06:57:36 10° WSW visible
